Regional Weather Roundup
Issued by NWS

Home | Current Version | Previous Version | Text Only | Print | Product List | Glossary Off
Versions: 1 2 3 4 5 6 7 8 9 10 11 12 13 14 15 16 17 18 19 20 21 22 23 24 25 26 27 28 29 30 31 32 33 34 35 36 37 38 39 40 41 42 43 44 45 46 47 48 49 50

000
ASUS43 KDTX 081710
RWRMI
MICHIGAN HOURLY REGIONAL WEATHER ROUNDUP
NATIONAL WEATHER SERVICE DETROIT/PONTIAC MI
ISSUED BY NATIONAL WEATHER SERVICE GRAND RAPIDS MI
1200 PM EST THU DEC 08 2016

NOTE: "FAIR" INDICATES FEW OR NO CLOUDS BELOW 12,000 FEET WITH NO
SIGNIFICANT WEATHER AND/OR OBSTRUCTION TO VISIBILITY.

MIZ047>049-052>055-059>063-066>070-074>076-081>083-081800-
SOUTHEAST LOWER MICHIGAN

CITY           SKY/WX    TMP DP  RH WIND       PRES   REMARKS
ADRIAN         CLOUDY    24  17  74 W16G28    30.14R WCI  11
ALMA           FLURRIES  27  19  69 W18       30.06S WCI  14
ANN ARBOR      LGT SNOW  25  21  85 SW16      30.09S FOG     WCI  12
BAD AXE        CLOUDY    27  16  64 W16G25    29.99S WCI  14
DETROIT CITY   CLOUDY    29  17  61 W13G21    30.07F WCI  19
DETROIT        LGT SNOW  27  21  78 SW20      30.10S WCI  13
FLINT          CLOUDY    27  17  66 W20G31    30.05F WCI  13
GROSSE ILE     LGT SNOW  27  21  78 W12G20    30.09S WCI  17
HILLSDALE      LGT SNOW  23  18  80 W15G24    30.10S WCI  10
HOWELL         LGT SNOW  27  22  82 W16       30.06S WCI  14

CITY           SKY/WX    TMP DP  RH WIND       PRES   REMARKS
JACKSON        LGT SNOW  24  20  84 W10       30.09S WCI  14
LANSING        LGT SNOW  26  18  71 W16       30.09S WCI  14
MASON          LGT SNOW  26  22  85 W14G24    30.08S WCI  15
MONROE         LGT SNOW  28  21  75 W16G22    30.11S WCI  16
MT. CLEMENS    LGT SNOW  28  23  80 W13G22    30.03F WCI  18
PONTIAC        FLURRIES  26  20  77 W16G23    30.03S WCI  14
PORT HOPE        N/A     28  18  66 SW13G24   29.94F WCI  17
PORT HURON     LGT SNOW  27  21  80 SW8       30.04S WCI  18
TRI CITIES     CLOUDY    28  18  66 W21G26    30.04S WCI  15
YPSILANTI      FLURRIES  28  22  78 W16       30.09F WCI  16
$$
MIZ043>046-050>051-056>058-064>065-071>073-077>080-081800-
SOUTHWEST LOWER MICHIGAN

CITY           SKY/WX    TMP DP  RH WIND       PRES   REMARKS
BATTLE CREEK   LGT SNOW  25  20  81 W12       30.12S WCI  14
BENTON HARBOR  CLOUDY    24  17  74 W21G31    30.20S WCI   9
BIG RAPIDS     LGT SNOW  26  20  78 W9G20     30.04R WCI  16
COLDWATER      LGT SNOW  24  19  84 W17       30.14S WCI  10
HOLLAND        FLURRIES  26  18  71 W17G25    30.14R WCI  13
GRAND RAPIDS   LGT SNOW  25  20  81 W13       30.11R WCI  14
KALAMAZOO      LGT SNOW  24  18  77 W16G24    30.14S WCI  11
MARSHALL       LGT SNOW  25  21  86 W15G21    30.11S WCI  12
MOUNT PLEASANT FLURRIES  27  18  71 W12G22    30.03S WCI  16
MUSKEGON       LGT SNOW  26  19  74 W17G24    30.13R WCI  13
STURGIS        LGT SNOW  21  17  82 W15G24    30.16S WCI   8
$$
MIZ016>042-081800-
NORTHERN LOWER MICHIGAN

CITY           SKY/WX    TMP DP  RH WIND       PRES   REMARKS
ALPENA         MIX PCPN  29  20  69 W18G28    29.89S WCI  16
BEAVER ISLAND  LGT SNOW  30  26  84 NW12G17   29.95R WCI  21
BELLAIRE       CLOUDY    32  27  83 W10G16    29.95S WCI  23
CADILLAC       LGT SNOW  26  21  82 W13       29.96S WCI  14
CHARLEVOIX     CLOUDY    32  25  76 NW14G22   29.96R WCI  22
GAYLORD        SNOW      27  22  81 W10       29.88S VSB 1/2 WCI  17
HOUGHTON LAKE  FLURRIES  25  19  78 W15G23    29.96S WCI  13
MANISTEE       LGT SNOW  27  23  85 W17       30.04S FOG     WCI  14
OSCODA         PTSUNNY   31  17  55 MISG      29.93S
PELLSTON       CLOUDY    30  21  69 NW15      29.92R WCI  19
TRAVERSE CITY  LGT SNOW  30  25  81 W14       29.97F WCI  19
LUDINGTON      CLOUDY    26  21  82 NW8       30.07  WCI  18
$$
MIZ007>008-015-081800-
EASTERN UPPER MICHIGAN

CITY           SKY/WX    TMP DP  RH WIND       PRES   REMARKS
KINROSS        FLURRIES  28  21  75 N14G21    29.87R WCI  17
MACKINAC ISLAN MOSUNNY   30  23  76 NW13G18   29.89R WCI  20
NEWBERRY       PTSUNNY   27  19  69 NW12G22   29.92R WCI  17
S. S. MARIE    MIX PCPN  28  17  63 NW10G16   29.88R WCI  19
$$
MIZ004>006-011>014-085-081800-
CENTRAL UPPER MICHIGAN

CITY           SKY/WX    TMP DP  RH WIND       PRES   REMARKS
MANISTIQUE     LGT SNOW  28  27  97 NW7       29.97R WCI  21
ESCANABA       FLURRIES  31  22  69 NW15G23   30.02R WCI  20
MENOMINEE      SUNNY     30  19  63 NW9G20    30.07R WCI  22
SAWYER-GWINN   LGT SNOW  27  23  86 NW13G20   29.99R WCI  16
$$
MIZ001>003-009>011-084-081800-
WESTERN UPPER MICHIGAN

CITY           SKY/WX    TMP DP  RH WIND       PRES   REMARKS
IRON MOUNTAIN  PTSUNNY   29  18  63 NW20G25   30.02R WCI  16
HOUGHTON       LGT SNOW  28  19  69 N17G29    30.05R WCI  16
COPPER HARBOR    N/A     32  23  69 NE24G30   30.04R WCI  19
IRONWOOD       SNOW      27  21  80 N10G20    30.14R VSB 1/4 WCI  17
$$

ABBREVIATIONS USED IN REMARKS
   TC - TEMPERATURE IN CELSIUS
  WCI - WIND CHILL INDEX
   HX - HEAT INDEX
  VSB - VISIBILITY




USA.gov is the U.S. government's official web portal to all federal, state and local government web resources and services.